When you browse on this site, cookies collect data to enhance your experience and personalize the content and advertising you see.
Visit our Privacy Policy to learn more. By continuing to use the site, you agree to this use of cookies and data.
  • In Switzerland
  • List of Countries
  • For 7 days
  • Water Temperature
  • Weather Map
  • Weather Widgets
  • user-avatar
    Login

    Hourly Weather Lewis

    Today, 21 February, Friday

    Time Temperature Precipitation Wind Pressure Humidity
    00:00 +2°C° 0 mm 12 mps 737 mmHg 76%
    01:00 +3°C° 0.7 mm 13 mps 736 mmHg 81%
    02:00 +2°C° 0.7 mm 15 mps 735 mmHg 85%
    03:00 +2°C° 0.7 mm 17 mps 734 mmHg 89%
    04:00 +3°C° 1 mm 17 mps 733 mmHg 88%
    05:00 +5°C° 1 mm 17 mps 731 mmHg 87%
    06:00 +5°C° 0 mm 18 mps 730 mmHg 87%
    13:00 +4°C° 0.1 mm 14 mps 732 mmHg 70%
    14:00 +4°C° 0.1 mm 14 mps 732 mmHg 70%
    15:00 +4°C° 0.1 mm 14 mps 732 mmHg 70%
    16:00 +4°C° 0.1 mm 14 mps 732 mmHg 72%
    17:00 +3°C° 0.1 mm 13 mps 731 mmHg 75%
    18:00 +3°C° 0.1 mm 13 mps 731 mmHg 78%
    19:00 +1°C° 0.5 mm 13 mps 731 mmHg 82%
    20:00 0°C° 0.5 mm 13 mps 730 mmHg 86%
    21:00 0°C° 0.5 mm 13 mps 730 mmHg 90%
    22:00 0°C° 0.4 mm 13 mps 730 mmHg 85%
    23:00 0°C° 0.4 mm 13 mps 729 mmHg 81%

    Tomorrow, 22 February, Saturday

    Time Temperature Precipitation Wind Pressure Humidity
    00:00 0°C° 0.4 mm 13 mps 729 mmHg 76%
    01:00 0°C° 0.4 mm 14 mps 729 mmHg 72%
    02:00 -1°C° 0.4 mm 15 mps 729 mmHg 68%
    03:00 -2°C° 0.4 mm 16 mps 730 mmHg 64%
    04:00 -2°C° 0.3 mm 16 mps 730 mmHg 63%
    05:00 -2°C° 0.3 mm 16 mps 730 mmHg 62%
    06:00 -3°C° 0.3 mm 16 mps 731 mmHg 60%
    07:00 -2°C° 0.3 mm 17 mps 731 mmHg 61%
    08:00 -2°C° 0.3 mm 17 mps 731 mmHg 61%
    09:00 -2°C° 0.3 mm 17 mps 731 mmHg 62%
    10:00 -2°C° 0.2 mm 18 mps 732 mmHg 65%
    11:00 -2°C° 0.2 mm 19 mps 732 mmHg 68%
    12:00 -1°C° 0.2 mm 20 mps 733 mmHg 72%
    13:00 -1°C° 0.1 mm 20 mps 733 mmHg 72%
    14:00 -1°C° 0.1 mm 20 mps 734 mmHg 73%
    15:00 -1°C° 0.1 mm 19 mps 735 mmHg 74%
    16:00 -1°C° 0.2 mm 20 mps 735 mmHg 74%
    17:00 -1°C° 0.2 mm 20 mps 736 mmHg 74%
    18:00 -1°C° 0.2 mm 20 mps 736 mmHg 75%
    19:00 -1°C° 0.1 mm 19 mps 737 mmHg 74%
    20:00 -1°C° 0.1 mm 18 mps 738 mmHg 73%
    21:00 0°C° 0.1 mm 17 mps 739 mmHg 72%
    22:00 0°C° 0.1 mm 16 mps 740 mmHg 72%
    23:00 -1°C° 0.1 mm 15 mps 740 mmHg 72%

    Day after tomorrow, 23 February, Sunday

    Time Temperature Precipitation Wind Pressure Humidity
    00:00 -1°C° 0.1 mm 14 mps 740 mmHg 73%
    01:00 -1°C° 0.1 mm 14 mps 740 mmHg 73%
    02:00 -1°C° 0.1 mm 13 mps 740 mmHg 73%
    03:00 -2°C° 0.1 mm 12 mps 740 mmHg 73%
    04:00 -2°C° 0.1 mm 11 mps 740 mmHg 72%
    05:00 -2°C° 0.1 mm 11 mps 740 mmHg 72%
    06:00 -2°C° 0.1 mm 10 mps 740 mmHg 71%
    07:00 -2°C° 0.5 mm 10 mps 740 mmHg 77%
    08:00 -2°C° 0.5 mm 10 mps 740 mmHg 82%
    09:00 -2°C° 0.5 mm 10 mps 740 mmHg 88%
    10:00 -1°C° 0.5 mm 11 mps 742 mmHg 79%
    11:00 +1°C° 0.5 mm 11 mps 743 mmHg 69%
    12:00 +2°C° 0.5 mm 11 mps 744 mmHg 60%
    13:00 +2°C° 0 mm 11 mps 745 mmHg 62%
    14:00 +2°C° 0 mm 11 mps 746 mmHg 64%
    15:00 +2°C° 0 mm 10 mps 747 mmHg 66%
    16:00 +2°C° 0 mm 9 mps 748 mmHg 69%
    17:00 +2°C° 0 mm 7 mps 749 mmHg 73%
    18:00 +1°C° 0 mm 5 mps 751 mmHg 76%
    19:00 +1°C° 0 mm 5 mps 751 mmHg 77%
    20:00 0°C° 0 mm 4 mps 751 mmHg 77%
    21:00 0°C° 0 mm 4 mps 752 mmHg 78%
    22:00 0°C° 0 mm 4 mps 751 mmHg 78%
    23:00 0°C° 0 mm 4 mps 751 mmHg 78%

    24 February, Monday

    Time Temperature Precipitation Wind Pressure Humidity
    00:00 0°C° 0 mm 4 mps 751 mmHg 79%
    01:00 0°C° 0 mm 4 mps 750 mmHg 80%
    02:00 0°C° 0 mm 4 mps 748 mmHg 81%
    03:00 0°C° 0 mm 4 mps 747 mmHg 82%
    04:00 0°C° 0.1 mm 5 mps 745 mmHg 83%
    05:00 -1°C° 0.1 mm 6 mps 744 mmHg 85%
    06:00 -2°C° 0.1 mm 7 mps 742 mmHg 87%
    07:00 -3°C° 0.4 mm 10 mps 739 mmHg 90%
    08:00 -3°C° 0.4 mm 12 mps 736 mmHg 92%
    09:00 -5°C° 0.4 mm 15 mps 734 mmHg 95%
    10:00 -2°C° 1.1 mm 14 mps 731 mmHg 93%
    11:00 -1°C° 1.1 mm 12 mps 728 mmHg 91%
    12:00 +2°C° 1.1 mm 11 mps 725 mmHg 89%
    13:00 +1°C° 1.6 mm 11 mps 723 mmHg 92%
    14:00 +1°C° 1.6 mm 11 mps 721 mmHg 94%
    15:00 0°C° 1.6 mm 10 mps 719 mmHg 97%
    16:00 0°C° 1.3 mm 9 mps 720 mmHg 95%
    17:00 +1°C° 1.3 mm 9 mps 720 mmHg 94%
    18:00 +1°C° 1.3 mm 8 mps 721 mmHg 92%
    19:00 +1°C° 0.1 mm 8 mps 723 mmHg 91%
    20:00 +1°C° 0.1 mm 8 mps 725 mmHg 89%
    21:00 +2°C° 0.1 mm 9 mps 727 mmHg 88%
    22:00 +1°C° 0.8 mm 9 mps 729 mmHg 90%
    23:00 +1°C° 0.8 mm 10 mps 730 mmHg 91%

    25 February, Tuesday

    Time Temperature Precipitation Wind Pressure Humidity
    00:00 +1°C° 0.8 mm 10 mps 731 mmHg 93%
    01:00 +1°C° 0.6 mm 10 mps 732 mmHg 91%
    02:00 0°C° 0.6 mm 9 mps 732 mmHg 88%
    03:00 0°C° 0.6 mm 9 mps 733 mmHg 86%
    04:00 0°C° 0.5 mm 9 mps 733 mmHg 82%
    05:00 0°C° 0.5 mm 10 mps 733 mmHg 78%
    06:00 +1°C° 0.5 mm 10 mps 733 mmHg 73%
    07:00 0°C° 0.2 mm 9 mps 733 mmHg 75%
    08:00 0°C° 0.2 mm 8 mps 733 mmHg 77%
    09:00 0°C° 0.2 mm 7 mps 733 mmHg 79%
    10:00 0°C° 0.2 mm 7 mps 733 mmHg 77%
    11:00 +2°C° 0.2 mm 7 mps 733 mmHg 75%
    12:00 +2°C° 0.2 mm 6 mps 733 mmHg 74%
    13:00 +2°C° 0.1 mm 6 mps 732 mmHg 71%
    14:00 +2°C° 0.1 mm 6 mps 732 mmHg 69%
    15:00 +3°C° 0.1 mm 6 mps 732 mmHg 67%
    16:00 +2°C° 0.1 mm 6 mps 731 mmHg 71%
    17:00 +1°C° 0.1 mm 5 mps 731 mmHg 75%
    18:00 0°C° 0.1 mm 5 mps 731 mmHg 80%
    19:00 0°C° 0.1 mm 4 mps 731 mmHg 79%
    20:00 -1°C° 0.1 mm 4 mps 731 mmHg 78%
    21:00 0°C° 0.1 mm 3 mps 731 mmHg 77%
    22:00 -1°C° 0 mm 4 mps 731 mmHg 77%
    23:00 -1°C° 0 mm 4 mps 731 mmHg 77%

    26 February, Wednesday

    Time Temperature Precipitation Wind Pressure Humidity
    00:00 -1°C° 0 mm 4 mps 732 mmHg 77%
    01:00 -1°C° 0.1 mm 5 mps 732 mmHg 77%
    02:00 -1°C° 0.1 mm 7 mps 732 mmHg 76%
    03:00 -1°C° 0.1 mm 8 mps 733 mmHg 76%
    04:00 -1°C° 0.1 mm 9 mps 733 mmHg 74%
    05:00 0°C° 0.1 mm 10 mps 733 mmHg 72%
    06:00 -1°C° 0.1 mm 11 mps 734 mmHg 71%
    07:00 -1°C° 0.2 mm 11 mps 734 mmHg 71%
    08:00 0°C° 0.2 mm 10 mps 735 mmHg 70%
    09:00 0°C° 0.2 mm 9 mps 735 mmHg 70%
    10:00 +1°C° 0.4 mm 10 mps 736 mmHg 69%
    11:00 +1°C° 0.4 mm 11 mps 737 mmHg 67%
    12:00 +1°C° 0.4 mm 11 mps 738 mmHg 65%
    13:00 +1°C° 0.2 mm 11 mps 738 mmHg 62%
    14:00 0°C° 0.2 mm 12 mps 739 mmHg 59%
    15:00 0°C° 0.2 mm 12 mps 739 mmHg 56%
    16:00 -1°C° 0.2 mm 11 mps 740 mmHg 60%
    17:00 -2°C° 0.2 mm 10 mps 740 mmHg 64%
    18:00 -1°C° 0.2 mm 9 mps 740 mmHg 67%
    19:00 -1°C° 0.2 mm 9 mps 740 mmHg 68%
    20:00 -1°C° 0.2 mm 8 mps 741 mmHg 69%
    21:00 -1°C° 0.2 mm 8 mps 741 mmHg 70%
    22:00 -1°C° 0.1 mm 8 mps 741 mmHg 68%
    23:00 -1°C° 0.1 mm 9 mps 742 mmHg 66%
    Show more